Air Quality Table

TIMESTAMP NO2 O3 PM2.5 TEMP HUM AIRPRES WS WD NO
2021-08-02 16:00 6.72 ug/m3 87.66 ug/m3 14.68 ug/m3 37.07 C 22.61 % 999.66 mbar 1.25 m/s 302.91 Deg 1.54 ug/m3
2021-08-02 15:00 5.23 ug/m3 92.32 ug/m3 18.61 ug/m3 36.71 C 23.94 % 999.92 mbar 1.62 m/s 288.13 Deg 0.77 ug/m3
2021-08-02 14:00 4.51 ug/m3 95.28 ug/m3 20.77 ug/m3 36.93 C 25.64 % 1,000.02 mbar 1.81 m/s 288.94 Deg 0.58 ug/m3
2021-08-02 13:00 8.81 ug/m3 99.23 ug/m3 20.14 ug/m3 36.86 C 27.57 % 1,000.18 mbar 1.93 m/s 241.85 Deg 1.1 ug/m3
2021-08-02 12:00 11.83 ug/m3 113.24 ug/m3 22.94 ug/m3 36.41 C 33.82 % 1,000.17 mbar 1.39 m/s 205.15 Deg 1.89 ug/m3
2021-08-02 11:00 9.25 ug/m3 100.78 ug/m3 28.05 ug/m3 36.58 C 25.45 % 1,000.08 mbar 1.55 m/s 224.87 Deg 1.26 ug/m3
2021-08-02 10:00 26.29 ug/m3 91.97 ug/m3 23.05 ug/m3 35.79 C 37.42 % 999.93 mbar 1.41 m/s 197.92 Deg 3.87 ug/m3
2021-08-02 09:00 21.02 ug/m3 80.1 ug/m3 23.15 ug/m3 33.96 C 44.87 % 999.93 mbar 0.88 m/s 262.86 Deg 2.98 ug/m3
2021-08-02 08:00 14.33 ug/m3 73.44 ug/m3 16.51 ug/m3 30.45 C 67 % 999.88 mbar 0.87 m/s 90.47 Deg 1.92 ug/m3
2021-08-02 07:00 15.88 ug/m3 71.38 ug/m3 17.42 ug/m3 28.76 C 73.41 % 999.73 mbar 1.02 m/s 262.22 Deg 0.76 ug/m3
2021-08-02 06:00 36.22 ug/m3 40.78 ug/m3 17.46 ug/m3 28.46 C 46.81 % 999.40 mbar 0.98 m/s 148.15 Deg 2.5 ug/m3
2021-08-02 05:00 22.53 ug/m3 50.39 ug/m3 15.83 ug/m3 28.41 C 40.98 % 999.03 mbar 0.47 m/s 267.32 Deg 0.07 ug/m3
2021-08-02 04:00 11.07 ug/m3 83.94 ug/m3 12.92 ug/m3 29.28 C 43.07 % 998.87 mbar 0.66 m/s 331.05 Deg 0.08 ug/m3
2021-08-02 03:00 5.87 ug/m3 78.25 ug/m3 11.77 ug/m3 28.87 C 47.61 % 998.93 mbar 0.5 m/s 295.43 Deg -0.06 ug/m3
2021-08-02 02:00 4.96 ug/m3 86.99 ug/m3 12.88 ug/m3 28.71 C 55.84 % 999.18 mbar 0.51 m/s 305.77 Deg 0.04 ug/m3
2021-08-02 01:00 7.05 ug/m3 77.84 ug/m3 13.41 ug/m3 28.1 C 67 % 999.29 mbar 0.78 m/s 251.77 Deg 0.09 ug/m3
2021-08-02 00:00 5.42 ug/m3 65.41 ug/m3 13.2 ug/m3 28.57 C 75.75 % 999.49 mbar 0.9 m/s 254.45 Deg 0.08 ug/m3
2021-08-01 23:00 8.88 ug/m3 63.08 ug/m3 16.17 ug/m3 29.23 C 58.53 % 999.67 mbar 1.03 m/s 350.67 Deg 0 ug/m3
2021-08-01 22:00 16.32 ug/m3 57.01 ug/m3 15.15 ug/m3 30.55 C 38.21 % 999.81 mbar 0.97 m/s 356.51 Deg 0.08 ug/m3
2021-08-01 21:00 11.28 ug/m3 65.71 ug/m3 13.32 ug/m3 32.06 C 25.52 % 999.51 mbar 0.52 m/s 331.88 Deg 0.52 ug/m3
2021-08-01 20:00 8.6 ug/m3 72.94 ug/m3 9.89 ug/m3 33.37 C 22.44 % 999.05 mbar 0.68 m/s 349 Deg -0.01 ug/m3
2021-08-01 19:00 4.26 ug/m3 84.15 ug/m3 9.63 ug/m3 35.27 C 16.85 % 998.53 mbar 0.64 m/s 335.94 Deg 0.05 ug/m3
2021-08-01 18:00 2.07 ug/m3 89.79 ug/m3 11.8 ug/m3 36.92 C 15.12 % 998.33 mbar 0.92 m/s 305.01 Deg 0.17 ug/m3

It is to be noted that the data is provisional and subject to quality assurance procedures. For validated data kindly refer your request to contact.air@era.org.mt